Home   Weather   Kuwait City   Past weeks

Flag for Kuwait Past Weather in Kuwait City, Kuwait — Yesterday and Last 2 Weeks

Now
97 °F

Low level haze.


Feels Like: 94 °F
Forecast: 76 / 88 °F
Wind: 22 mph from Southeast

Location: Kuwait International Airport

Current Time: Apr 29, 2017 at 4:24:19 pm

Latest Report: Apr 29, 2017 at 3:00 pm


Visibility: 1 mi

Pressure: 29.74 "Hg

Humidity: 22%

Dew Point: 52 °F

Location of Kuwait CityLocation

Past Weather in Kuwait City — Graph

°F

Kuwait City Temperature Yesterday

Maximum temperature yesterday: 99 °F (at 1:00 pm)
Minimum temperature yesterday: 72 °F (at 4:00 am)
Average temperature yesterday: 86 °F

High & Low Weather Summary for the Past Weeks

 TemperatureHumidityPressure
High106 °F (Apr 14, 3:00 pm)66% (Apr 15, 4:00 am)30.01 "Hg (Apr 15, 4:00 am)
Low66 °F (Apr 23, 6:00 am)8% (Apr 23, 2:00 pm)29.68 "Hg (Apr 14, 5:00 pm)
Average84 °F27%29.86 "Hg
* Reported Apr 14 3:00 pm — Apr 29 3:00 pm, Kuwait City, Weather by CustomWeather, © 2017

Note: Actual official high and low records may vary slightly from our data, if they occured in-between our weather recording intervals... More about our weather records

Advertising

Kuwait City Weather History for the Previous 24 Hours

Scroll right to see more
 ConditionsComfort  
Time TempWeatherWind HumidityBarometerVisibility
3:00 pm
Sat, Apr 29
97 °FLow level haze.22 mph22%29.74 "Hg1 mi
2:00 pm97 °FHaze.16 mph23%29.74 "Hg1 mi
12:00 pm100 °FHaze.5 mph18%29.77 "Hg1 mi
11:00 am99 °FHaze.3 mph19%29.80 "Hg1 mi
10:00 am93 °FHaze.3 mph23%29.80 "Hg1 mi
9:00 am91 °FHaze.3 mph24%29.80 "Hg1 mi
8:00 am90 °FHaze.10 mph24%29.80 "Hg1 mi
7:00 am88 °FSunny.8 mph25%29.80 "Hg1 mi
6:00 am84 °FSunny.5 mph29%29.77 "Hg1 mi
5:00 am84 °FClear.5 mph29%29.74 "Hg1 mi
4:00 am84 °FClear.5 mph29%29.77 "Hg1 mi
3:00 am86 °FClear.3 mph25%29.74 "Hg2 mi
2:00 am86 °FClear.8 mph25%29.74 "Hg5 mi
1:00 am84 °FClear.9 mph27%29.77 "Hg5 mi
12:00 am84 °FClear.14 mph27%29.74 "Hg5 mi
11:00 pm
Fri, Apr 28
86 °FClear.10 mph25%29.74 "Hg5 mi
10:00 pm84 °FClear.6 mph29%29.74 "Hg5 mi
9:00 pm86 °FClear.12 mph25%29.74 "Hg5 mi
8:00 pm86 °FClear.12 mph25%29.71 "Hg5 mi
7:00 pm88 °FClear.14 mph25%29.71 "Hg4 mi
6:00 pm90 °FSunny.13 mph21%29.71 "Hg4 mi
5:00 pm93 °FSunny.14 mph17%29.74 "Hg4 mi
4:00 pm95 °FSunny.15 mph15%29.74 "Hg4 mi
Weather by CustomWeather, © 2017

See weather overviewHow to use our weather pages